Location: Pasadena, ca
(34.1243°N, 118.1037°W)
Time: 22:42:58
(UTC-08:00)

N. Korean satellite - Pass Details

Date: 13 November 2017
Orbit: 460 x 515 km, 97.2° (Epoch: 18 November)

Event Time Altitude Azimuth Distance (km) Brightness Sun altitude
Rises 17:42:46 0° 158° (SSE) 2,469 10.1 -11.3°
Reaches altitude 10° 17:44:49 10° 153° (SSE) 1,600 9.1 -11.7°
Maximum altitude 17:48:09 53° 77° (ENE) 578 6.5 -12.4°
Drops below altitude 10° 17:51:33 10° 359° (N) 1,626 9.1 -13.1°
Sets 17:53:39 0° 355° (N) 2,513 10.1 -13.5°
